Regional Weather Roundup
Issued by NWS

Home | Current Version | Previous Version | Graphics & Text | Print | Product List | Glossary On
Versions: 1 2 3 4 5 6 7 8 9 10 11 12 13 14 15 16 17 18 19 20 21 22 23 24 25 26 27 28 29 30 31 32 33 34 35 36 37 38 39 40 41 42 43 44 45 46 47 48 49 50
000
ASUS43 KMKX 041921
RWRWI

WISCONSIN REGIONAL WEATHER ROUNDUP
NATIONAL WEATHER SERVICE MILWAUKEE/SULLIVAN WI
100 PM CST WED MAR 04 2015

NOTE: "FAIR" INDICATES FEW OR NO CLOUDS BELOW 12,000 FEET WITH NO
SIGNIFICANT WEATHER AND/OR OBSTRUCTIONS TO VISIBILITY.

WIZ001-002-006>008-014>016-023>028-042000-
NORTHWEST WISCONSIN

CITY           SKY/WX    TMP DP  RH WIND       PRES   REMARKS
SUPERIOR ARPT  CLOUDY     4 -10  51 W16G23    30.19R WCI -15
ASHLAND        NOT AVBL
HAYWARD        NOT AVBL
SIREN          MOSUNNY    6 -11  45 NW15G23   30.18S WCI -12
CUMBERLAND     SUNNY      7 -11  43 W20       30.14S HAZE    WCI -13
RICE LAKE      SUNNY      8 -11  41 W17G24    30.17F WCI -11
CHETEK         SUNNY      8 -11  43 MISG      30.17S
LADYSMITH      MOSUNNY    8  -9  46 W14G21    30.13F WCI  -9
EAU CLAIRE     NOT AVBL
MENOMONIE      SUNNY     11  -7  44 W22G29    30.20F WCI  -9
NEW RICHMOND   SUNNY      9  -9  42 W18       30.20S WCI  -9
OSCEOLA        SUNNY      9 -10  41 W17G23    30.25R WCI  -9
$$

WIZ003>005-009-010-017-018-042000-
NORTH CENTRAL WISCONSIN

CITY           SKY/WX    TMP DP  RH WIND       PRES   REMARKS
MANITOWISH WTR CLOUDY     1 -10  59 W13G20    30.01S HAZE    WCI -16
ARBOR VITAE    CLOUDY     4  -9  56 NW13G22   30.01S WCI -13
WOODRUFF       CLOUDY     4  -9  56 NW13G22   30.01S WCI -13
RHINELANDER    NOT AVBL
EAGLE RIVER    PTSUNNY    3 -12  50 W12G18    29.99R WCI -13
LAND O LAKES   CLOUDY     6 -12  44 W10G21    29.99R WCI  -9
PHILLIPS       CLOUDY     6 -11  45 W12G22    30.05S WCI  -9
TOMAHAWK       CLOUDY     6 -11  45 W14G23    30.05R WCI -11
MEDFORD        CLOUDY     8  -9  46 W20G25    30.06F WCI -11
MERRILL        PTSUNNY   10  -7  47 W18G25    30.05F WCI  -9
$$

WIZ029-030-035-036-043>047-042000-
CENTRAL WISCONSIN

CITY           SKY/WX    TMP DP  RH WIND       PRES   REMARKS
WAUSAU         NOT AVBL
MOSINEE        SUNNY      7  -8  51 W18G28    30.09F WCI -12
MARSHFIELD     NOT AVBL
STEVENS POINT  SUNNY      7 -11  44 W17G24    30.12F WCI -12
WAUPACA        SUNNY     15  -4  42 W18G25    30.13F WCI  -2
WAUTOMA        NOT AVBL
WISC RAPIDS    NOT AVBL
CAMP DOUGLAS   NOT AVBL
$$

WIZ011>013-019>022-031-037>040-048>050-042000-
NORTHEAST WISCONSIN

CITY           SKY/WX    TMP DP  RH WIND       PRES   REMARKS
ANTIGO         MOSUNNY    8  -8  48 W16G24    30.01F WCI -10
SHAWANO        SUNNY     15  -8  35 W13G24    30.09F WCI   1
OCONTO         SUNNY     14  -7  39 W20G26    30.07F WCI  -4
STURGEON BAY   FAIR      12  -6  44 W16G22    30.06F WCI  -4
GREEN BAY      NOT AVBL
MANITOWOC      NOT AVBL
APPLETON       SUNNY     12  -6  44 W21G26    30.11S WCI  -6
CLINTONVILLE   SUNNY     14  -6  41 W14G22    30.09F WCI  -1
OSHKOSH        NOT AVBL
$$

WIZ032>034-041-042-053>061-042000-
SOUTHWEST WISCONSIN

CITY           SKY/WX    TMP DP  RH WIND       PRES   REMARKS
LA CROSSE      SUNNY     16  -1  47 NW10      30.22F WCI   4
SPARTA         SUNNY     14  -5  42 W12       30.20F WCI   0
VIROQUA        SUNNY     12  -5  47 NW12G17   30.17S WCI  -2
BOSCOBEL       NOT AVBL
PRAIRIE DU CHI SUNNY     13  -6  41 W13       30.25F WCI  -1
PLATTEVILLE    SUNNY     14   0  53 W10       30.20S WCI   1
$$

WIZ056-057-062-063-064-067-068-042000-
SOUTH CENTRAL WISCONSIN

CITY           SKY/WX    TMP DP  RH WIND       PRES   REMARKS
REEDSBURG      SUNNY     13  -2  50 W13G20    30.18R WCI  -1
BARABOO/DELLS  SUNNY     14  -4  44 W13       30.16R WCI   0
LONE ROCK      NOT AVBL
MINERAL POINT  SUNNY     18  -2  41 W16       30.17S WCI   3
MADISON        NOT AVBL
MIDDLETON      SUNNY     19  -3  37 NW13      30.17S WCI   6
WATERTOWN      SUNNY     17   2  51 W14G20    30.14F WCI   3
MONROE         SUNNY     19   1  45 NW9       30.15S WCI   9
JANESVILLE     SUNNY     19   0  42 NW16G22   30.16F WCI   5
$$

WIZ051-052-058>065-066-070>072-042000-
SOUTHEAST WISCONSIN

CITY           SKY/WX    TMP DP  RH WIND       PRES   REMARKS
MILWAUKEE      PTSUNNY   19  -2  39 NW18G24   30.14R WCI   4
WAUKESHA       NOT AVBL
MILWAUKEE/TIMM SUNNY     18  -2  41 W21G26    30.14S WCI   1
RACINE         NOT AVBL
BURLINGTON     SUNNY     16  -1  48 W15       30.15R WCI   1
KENOSHA        NOT AVBL
FOND DU LAC    NOT AVBL
SHEBOYGAN      NOT AVBL
WEST BEND      SUNNY     18   0  45 NW14G22   30.11S WCI   4
JUNEAU         SUNNY     14   0  52 W10G21    30.15S WCI   2
$$

LSZ147-162-042000-
LAKE SUPERIOR

STATION/POSITION TIME  TEMP    WIND        PRES    WAVE
                       AIR SEA DIR/SP/G            HT/PER
                 (UTC) (F)     (DEG/KT/KT) (MB)    (FT/S)
DEVILS ISLAND    1900    4     280/ 20/ 25 1022.0R
PORT WING        1840    4     270/ 14/ 21 1021.7R
SAXON HARBOR     1814    5     290/ 14/ 26 1019.6S
$$

LMZ867-665-643>646-042000-
LAKE MICHIGAN

STATION/POSITION TIME  TEMP    WIND        PRES    WAVE
                       AIR SEA DIR/SP/G            HT/PER
                 (UTC) (F)     (DEG/KT/KT) (MB)    (FT/S)
NORTHPORT PIER   1908   13     300/ 10/ 18 1016.9F
SISTER BAY       1813   24     290/ 13/ 15   N/A
KEWAUNEE LAKESHO 1800   12     300/ 14/ 20 1017.8R
SHEBOYGAN LAKESH 1800   12     290/ 21/ 24 1020.8R
PORT WASHINGTON  1820   16     300/ 14/ 20 1021.0R
MILWAUKEE LAKESH 1900   16     300/ 14/ 21   N/A
KENOSHA   LAKESH 1900   17     290/ 16/ 23 1020.3S
$$

TC  - TEMPERATURE IN CELSIUS
VSB - VISIBILITY IN STATUTE MILES
WCI - WIND CHILL INDEX
HX  - HEAT INDEX




USA.gov is the U.S. government's official web portal to all federal, state and local government web resources and services.